UMBRA-2001 (48906 NORAD) Tracking and Keplerian Element Data

This shows tracking and keplerian element data for the satellite.

Feedback or suggestion? Click here.




ElementValue
Catalog48906
NameUMBRA-2001
Epoch Orbit1287
Epoch Day261.96805629
Epoch Year2021
RAAN29.5088
Inclination97.518
Eccentricity0.0009274
Argument of Perigee319.699
Mean Anonmoly40.3553
Mean Motion15.12836621
Decay Rate3.881E-05
L11 48906U 21059AD 21261.96805629 .00003881 00000-0 22440-3 0 9996
L22 48906 97.5180 29.5088 0009274 319.6990 40.3553 15.12836621 12873

Live tracking and technical data element details for UMBRA-2001 (NORAD 48906). UMBRA-2001 can be tracked NOW for your location showing map with azimuth and elevation plus other details from your city location.

Track the satellite on the map from your city or location and see movement details for azimuth, elevation, latitude, longitude, range, height, and movement on the map or in text.







IsCatalogInMostPopularTable: catalog: 48906, numindb: 13
Update: records affected: 1



GetName: 48906 UMBRA-2001

Hit Count: updated at: Fri, 24 Sep 2021 18:38:46 GMT